Location: PSU-Greenbush Astrophysical Observatory
(37.5140°N, 94.9880°W)
Time: 00:16:06
(UTC-06:00)

deb Explorer IX - Pass Details

Date: 31 January 2020
Orbit: 549 x 1099 km, 38.8° (Epoch: 20 February)

Event Time Altitude Azimuth Distance (km) Brightness Sun altitude
Rises 17:53:21 0° 212° (SSW) 3,193 ? -2.8°
Reaches altitude 10° 17:55:58 10° 200° (SSW) 2,363 ? -3.3°
Maximum altitude 18:00:41 27° 143° (SE) 1,605 ? -4.2°
Drops below altitude 10° 18:06:00 10° 88° (E) 2,695 ? -5.2°
Enters shadow 18:07:19 - 83° (E) 3,112 ? -5.5°
Sets 18:09:11 0° 77° (ENE) 3,730 - -5.8°
